Pellston, MI

6:14 PM EDT on October 01, 2016 (GMT -0400)
Pellston Regional Airport Of Emmet County

Weather History for KPLN - May, 2014

Change the Weather History Date:

Thursday, May 29, 2014

  Actual Average Record
Temperature  
Mean Temperature 58 °F -  
Max Temperature 80 °F 71 °F 93 °F (1978)
Min Temperature 39 °F 45 °F 25 °F (2004)
Degree Days  
Heating Degree Days 6    
Growing Degree Days 8 (Base 50)    
Moisture  
Dew Point 47 °F    
Average Humidity 69    
Maximum Humidity 97    
Minimum Humidity 35    
Precipitation  
Precipitation 0.00 in - - ()
Sea Level Pressure  
Sea Level Pressure 30.17 in    
Wind  
Wind Speed 2 mph (East)    
Max Wind Speed 12 mph    
Max Gust Speed 17 mph    
Visibility 10 miles    
Events      
Averages and records for this station are not official NWS values.
T = Trace of Precipitation, MM = Missing Value Source: NWS Daily Summary

Daily Weather History Graph

Daily Weather History Graph

Search for Another Location

Airport or City:

Trip Planner

Search our weather history database for the weather conditions in past years. The results will help you decide how hot, cold, wet, or windy it might be!

Date:

Astronomy

May. 29, 2014 Rise Set
Actual Time 5:55 AM EDT 9:18 PM EDT
Civil Twilight 5:18 AM EDT 9:54 PM EDT
Nautical Twilight 4:31 AM EDT 10:43 PM EDT
Astronomical Twilight 3:30 AM EDT 11:44 PM EDT
Moon 6:51 AM EDT (5/29) 10:04 PM EDT (5/29)
Length of Visible Light 16h 36m
Length of Day
15h 22m
New Moon, 1% of the Moon is Illuminated
May 29
New Moon
Jun 5
First Quarter
Jun 13
Full
Jun 19
Last Quarter
Jun 27
New

Hourly Weather History & Observations

Time (EDT) Temp. Dew Point Humidity Pressure Visibility Wind Dir Wind Speed Gust Speed Precip Events Conditions
12:54 AM 45.0 °F 43.0 °F 93% 30.15 in 10.0 mi Calm Calm - N/A   Clear
2:54 AM 43.0 °F 41.0 °F 93% 30.15 in 10.0 mi Calm Calm - N/A   Clear
4:06 AM 39.9 °F 39.0 °F 97% 30.15 in 10.0 mi Calm Calm - N/A   Partly Cloudy
4:54 AM 41.0 °F 39.0 °F 93% 30.16 in 10.0 mi Calm Calm - N/A   Scattered Clouds
5:54 AM 39.0 °F 37.9 °F 96% 30.18 in 10.0 mi Calm Calm - N/A   Clear
6:20 AM 39.9 °F 37.0 °F 89% 30.17 in 9.0 mi Calm Calm - N/A   Scattered Clouds
6:54 AM 43.0 °F 39.9 °F 89% 30.19 in 10.0 mi Calm Calm - N/A   Partly Cloudy
7:54 AM 52.0 °F 46.9 °F 83% 30.20 in 10.0 mi Calm Calm - N/A   Clear
8:54 AM 59.0 °F 48.9 °F 69% 30.21 in 10.0 mi SE 5.8 mph - N/A   Clear
9:54 AM 62.1 °F 50.0 °F 65% 30.22 in 10.0 mi Calm Calm - N/A   Clear
10:54 AM 66.9 °F 52.0 °F 59% 30.21 in 10.0 mi Variable 5.8 mph - N/A   Clear
11:54 AM 70.0 °F 51.1 °F 51% 30.20 in 10.0 mi ENE 6.9 mph - N/A   Clear
12:54 PM 73.9 °F 50.0 °F 43% 30.19 in 10.0 mi SE 11.5 mph - N/A   Clear
1:54 PM 73.9 °F 50.0 °F 43% 30.17 in 10.0 mi SE 9.2 mph 17.3 mph N/A   Clear
2:54 PM 75.9 °F 48.9 °F 38% 30.15 in 10.0 mi Calm Calm - N/A   Clear
3:54 PM 78.1 °F 48.0 °F 35% 30.14 in 10.0 mi Variable 5.8 mph - N/A   Clear
6:54 PM 75.0 °F 48.9 °F 40% 30.14 in 10.0 mi NE 11.5 mph - N/A   Clear
7:54 PM 73.0 °F 48.9 °F 42% 30.14 in 10.0 mi NNE 6.9 mph - N/A   Clear
8:54 PM 70.0 °F 51.1 °F 51% 30.14 in 10.0 mi East 4.6 mph - N/A   Clear
9:54 PM 62.1 °F 52.0 °F 70% 30.15 in 10.0 mi Calm Calm - N/A   Clear
10:54 PM 57.0 °F 51.1 °F 81% 30.16 in 10.0 mi Calm Calm - N/A   Clear
11:54 PM 54.0 °F 51.1 °F 90% 30.16 in 10.0 mi Calm Calm - N/A   Clear